Domov               UVHVVR             MKGP            O straneh              
ZDRAVSTVENO VARSTVO RASTLIN
  MREŽA AGROMET. POSTAJ
 ► PROGNOSTIČNA OBVESTILA
AGROMETEOROLOŠKI PODATKI -
ARSO
OBVLADOVANJE TVEGANJ ZARADI
NEUGODNIH VREMENSKIH RAZMER
  ► NARAVNE NESREČE
  ► SUŠA/MOČA
  ► NAMAKANJE
  ► ŽLED (gozdarstvo)
KARTOGRAFSKI PRIKAZI
SPLETNE POVEZAVE
PROJEKTI IN PUBLIKACIJE

AGROMETEOROLOŠKA MREŽA: VREMENSKE POSTAJE IN FENOLOŠKA OPAZOVANJA

Pregled podatkov za lokacijo Potoče, meteorološka postaja 861648

Pregled senzorjev na lokaciji

ID Ime Zadnja
vrednost
Datum
zadnje
spremembe
Tip
senzorja
4072 Omočenost lista (U) 0 U 18.3.2019 23:00 A730WET
4073 Padavine (mm) 0 mm 18.3.2019 23:00 Rain-O-Matic
4071 Relativna vlaga 2 m (% RH) 64,63 % RH 18.3.2019 22:59 50YA
4070 Temperatura 2 m (°C) 7,21 °C 18.3.2019 22:59 50YA

Pregled podatkov zadnjih 24 ur

Zap.
št.
Datum in čas Potoče
Omočenost
lista
Padavine Relativna
vlaga
2
m
Temperatura
2
m
1 18.3.2019 23:00
2 18.3.2019 22:30
3 18.3.2019 22:00 0 0 64,6 7,2
4 18.3.2019 21:30 0 0 66,6 6,9
5 18.3.2019 21:00 0 0 65,8 7,1
6 18.3.2019 20:30 0 0 64,3 7,2
7 18.3.2019 20:00 0 0 65,7 7,1
8 18.3.2019 19:30 3 0 68,3 6,9
9 18.3.2019 19:00 3 0 69,8 6,8
10 18.3.2019 18:30 9 0 70,4 6,7
11 18.3.2019 18:00 3 0 68,6 7
12 18.3.2019 17:30 1 0 67,4 7,2
13 18.3.2019 17:00 2 0 66,4 7,3
14 18.3.2019 16:30 2 0 66,3 7,4
15 18.3.2019 16:00 0 0 67,1 7,3
16 18.3.2019 15:30 3 0 70,7 7
17 18.3.2019 15:00 10 0 79,3 6,2
18 18.3.2019 14:30 10 0,4 78,7 6,2
19 18.3.2019 14:00 10 0 74,6 6,6
20 18.3.2019 13:30 10 0,2 72,9 6,9
21 18.3.2019 13:00 10 0 76,6 6,6
22 18.3.2019 12:30 10 0 78,7 6,4
23 18.3.2019 12:00 10 0 78,2 6,6
24 18.3.2019 11:30 10 0 77,4 6,9
25 18.3.2019 11:00 10 0 71,8 8,4
26 18.3.2019 10:30 10 0 70,4 9,9
27 18.3.2019 10:00 2 0 77 13
28 18.3.2019 09:30 0 0 79,9 13,1
29 18.3.2019 09:00 0 0 85,7 12,6
30 18.3.2019 08:30 10 0 91,4 11,1
31 18.3.2019 08:00 9 0 90,3 10,8
32 18.3.2019 07:30 0 0 89,8 10,7
33 18.3.2019 07:00 0 0 87,6 10,8
34 18.3.2019 06:30 0 0 86,6 10,9
35 18.3.2019 06:00 0 0 83,9 11,4
36 18.3.2019 05:30 0 0 79,4 12,2
37 18.3.2019 05:00 0 0 78,7 12,4
38 18.3.2019 04:30 0 0 79,9 12,4
39 18.3.2019 04:00 3 0 79,3 12,6
40 18.3.2019 03:30 10 0 79,7 12,7
41 18.3.2019 03:00 10 0 93,6 11,4
42 18.3.2019 02:30 10 0 96,3 10,7
43 18.3.2019 02:00 10 0 95,8 10,6
44 18.3.2019 01:30 10 0 94,8 10,7
45 18.3.2019 01:00 10 0 93,2 10,9
46 18.3.2019 00:30 10 0 91,2 11,3
47 18.3.2019 00:00 10 0 88,4 11,7
48 17.3.2019 23:30 0 0 87,4 11,9
© 2011 Ministrstvo za kmetijstvo, gozdarstvo in prehrano. Vse pravice pridržane.